Previsão horária em Barrow in Furness

Hoje, 21 Outubro, Quarta-feira

Tempo Temperatura Precipitação Vento Pressão Humidade
00:00 +11°C° 0 mm 6 m/s 745 mmHg 94%
01:00 +11°C° 0.1 mm 6 m/s 744 mmHg 95%
02:00 +12°C° 0.1 mm 5 m/s 744 mmHg 95%
03:00 +12°C° 0.1 mm 5 m/s 744 mmHg 96%
04:00 +12°C° 1.2 mm 5 m/s 744 mmHg 96%
05:00 +12°C° 1.2 mm 4 m/s 743 mmHg 96%
06:00 +12°C° 1.2 mm 4 m/s 743 mmHg 96%
07:00 +12°C° 1.1 mm 4 m/s 743 mmHg 96%
08:00 +12°C° 1.1 mm 4 m/s 743 mmHg 96%
09:00 +12°C° 1.1 mm 4 m/s 743 mmHg 96%
10:00 +13°C° 0.2 mm 4 m/s 743 mmHg 95%
11:00 +13°C° 0.2 mm 4 m/s 743 mmHg 95%
12:00 +13°C° 0.2 mm 3 m/s 743 mmHg 94%
13:00 +13°C° 0.1 mm 4 m/s 743 mmHg 93%
14:00 +13°C° 0.1 mm 4 m/s 743 mmHg 91%
15:00 +13°C° 0.1 mm 5 m/s 744 mmHg 89%
16:00 +13°C° 0 mm 5 m/s 744 mmHg 90%
17:00 +12°C° 0 mm 5 m/s 744 mmHg 92%
18:00 +12°C° 0 mm 5 m/s 745 mmHg 94%
19:00 +11°C° 0.1 mm 6 m/s 745 mmHg 93%
20:00 +11°C° 0.1 mm 6 m/s 745 mmHg 93%
21:00 +10°C° 0.1 mm 7 m/s 746 mmHg 93%
22:00 +10°C° 0.1 mm 8 m/s 746 mmHg 91%
23:00 +10°C° 0.1 mm 8 m/s 746 mmHg 89%

Amanhã, 22 Outubro, Quinta-feira

Tempo Temperatura Precipitação Vento Pressão Humidade
00:00 +10°C° 0.1 mm 9 m/s 746 mmHg 87%
01:00 +9°C° 0.2 mm 10 m/s 747 mmHg 88%
02:00 +9°C° 0.2 mm 10 m/s 747 mmHg 89%
03:00 +9°C° 0.2 mm 11 m/s 747 mmHg 90%
04:00 +9°C° 0.1 mm 11 m/s 748 mmHg 90%
05:00 +9°C° 0.1 mm 11 m/s 748 mmHg 89%
06:00 +9°C° 0.1 mm 11 m/s 749 mmHg 89%
07:00 +9°C° 0.1 mm 10 m/s 749 mmHg 89%
08:00 +9°C° 0.1 mm 10 m/s 750 mmHg 89%
09:00 +9°C° 0.1 mm 10 m/s 751 mmHg 88%
10:00 +10°C° 0.2 mm 9 m/s 751 mmHg 88%
11:00 +10°C° 0.2 mm 9 m/s 751 mmHg 88%
12:00 +8°C° 0.2 mm 9 m/s 752 mmHg 87%
13:00 +9°C° 0.1 mm 8 m/s 752 mmHg 87%
14:00 +9°C° 0.1 mm 7 m/s 752 mmHg 86%
15:00 +9°C° 0.1 mm 7 m/s 752 mmHg 86%
16:00 +9°C° 0.1 mm 6 m/s 753 mmHg 85%
17:00 +8°C° 0.1 mm 5 m/s 753 mmHg 85%
18:00 +8°C° 0.1 mm 5 m/s 753 mmHg 84%
19:00 +8°C° 0 mm 5 m/s 753 mmHg 83%
20:00 +7°C° 0 mm 5 m/s 753 mmHg 82%
21:00 +7°C° 0 mm 5 m/s 753 mmHg 81%
22:00 +7°C° 0 mm 5 m/s 753 mmHg 80%
23:00 +7°C° 0 mm 5 m/s 753 mmHg 79%

Depois de amanhã, 23 Outubro, Sexta-feira

Tempo Temperatura Precipitação Vento Pressão Humidade
00:00 +7°C° 0 mm 6 m/s 753 mmHg 78%
01:00 +7°C° 0 mm 6 m/s 753 mmHg 80%
02:00 +7°C° 0 mm 6 m/s 752 mmHg 81%
03:00 +6°C° 0 mm 7 m/s 752 mmHg 82%
04:00 +6°C° 0.1 mm 7 m/s 751 mmHg 83%
05:00 +6°C° 0.1 mm 7 m/s 751 mmHg 85%
06:00 +6°C° 0.1 mm 7 m/s 751 mmHg 86%
07:00 +6°C° 0.9 mm 7 m/s 751 mmHg 87%
08:00 +6°C° 0.9 mm 7 m/s 750 mmHg 88%
09:00 +8°C° 0.9 mm 7 m/s 750 mmHg 90%
10:00 +7°C° 0.2 mm 8 m/s 751 mmHg 84%
11:00 +9°C° 0.2 mm 8 m/s 751 mmHg 78%
12:00 +8°C° 0.2 mm 9 m/s 751 mmHg 72%
13:00 +8°C° 0.2 mm 9 m/s 751 mmHg 73%
14:00 +8°C° 0.2 mm 10 m/s 752 mmHg 74%
15:00 +7°C° 0.2 mm 10 m/s 752 mmHg 76%
16:00 +7°C° 0.1 mm 10 m/s 753 mmHg 76%
17:00 +6°C° 0.1 mm 9 m/s 753 mmHg 77%
18:00 +6°C° 0.1 mm 9 m/s 754 mmHg 77%
19:00 +6°C° 0.1 mm 9 m/s 754 mmHg 78%
20:00 +6°C° 0.1 mm 9 m/s 754 mmHg 79%
21:00 +6°C° 0.1 mm 8 m/s 755 mmHg 79%
22:00 +6°C° 0 mm 8 m/s 755 mmHg 80%
23:00 +6°C° 0 mm 8 m/s 755 mmHg 80%

24 Outubro, Sábado

Tempo Temperatura Precipitação Vento Pressão Humidade
00:00 +6°C° 0 mm 8 m/s 755 mmHg 80%
01:00 +6°C° 0.1 mm 8 m/s 755 mmHg 80%
02:00 +6°C° 0.1 mm 8 m/s 754 mmHg 79%
03:00 +7°C° 0.1 mm 8 m/s 754 mmHg 79%
04:00 +7°C° 0.8 mm 9 m/s 753 mmHg 82%
05:00 +7°C° 0.8 mm 10 m/s 752 mmHg 86%
06:00 +7°C° 0.8 mm 11 m/s 751 mmHg 89%
07:00 +8°C° 0.1 mm 11 m/s 751 mmHg 89%
08:00 +8°C° 0.1 mm 12 m/s 750 mmHg 88%
09:00 +9°C° 0.1 mm 12 m/s 749 mmHg 88%
10:00 +9°C° 0.3 mm 12 m/s 749 mmHg 88%
11:00 +10°C° 0.3 mm 12 m/s 748 mmHg 87%
12:00 +12°C° 0.3 mm 13 m/s 748 mmHg 87%
13:00 +12°C° 0.3 mm 13 m/s 747 mmHg 88%
14:00 +12°C° 0.3 mm 13 m/s 746 mmHg 88%
15:00 +13°C° 0.3 mm 12 m/s 745 mmHg 89%
16:00 +13°C° 0.5 mm 13 m/s 744 mmHg 89%
17:00 +13°C° 0.5 mm 13 m/s 744 mmHg 89%
18:00 +13°C° 0.5 mm 13 m/s 743 mmHg 89%
19:00 +13°C° 2.3 mm 12 m/s 743 mmHg 90%
20:00 +12°C° 2.3 mm 11 m/s 742 mmHg 90%
21:00 +12°C° 2.3 mm 10 m/s 742 mmHg 90%
22:00 +11°C° 2.2 mm 10 m/s 742 mmHg 90%
23:00 +9°C° 2.2 mm 10 m/s 742 mmHg 90%

25 Outubro, Domingo

Tempo Temperatura Precipitação Vento Pressão Humidade
00:00 +8°C° 2.2 mm 10 m/s 742 mmHg 90%
01:00 +8°C° 0.2 mm 10 m/s 743 mmHg 87%
02:00 +8°C° 0.2 mm 10 m/s 743 mmHg 83%
03:00 +8°C° 0.2 mm 10 m/s 743 mmHg 79%
04:00 +8°C° 0.3 mm 11 m/s 743 mmHg 79%
05:00 +8°C° 0.3 mm 11 m/s 744 mmHg 79%
06:00 +8°C° 0.3 mm 12 m/s 744 mmHg 80%
07:00 +8°C° 0.4 mm 11 m/s 744 mmHg 79%
08:00 +8°C° 0.4 mm 11 m/s 744 mmHg 79%
09:00 +8°C° 0.4 mm 11 m/s 744 mmHg 79%
10:00 +9°C° 0.5 mm 11 m/s 745 mmHg 79%
11:00 +9°C° 0.5 mm 11 m/s 745 mmHg 78%
12:00 +9°C° 0.5 mm 11 m/s 745 mmHg 77%
13:00 +9°C° 0.5 mm 10 m/s 745 mmHg 78%
14:00 +10°C° 0.5 mm 9 m/s 745 mmHg 78%
15:00 +10°C° 0.5 mm 9 m/s 746 mmHg 78%
16:00 +8°C° 0.6 mm 9 m/s 746 mmHg 80%
17:00 +8°C° 0.6 mm 9 m/s 746 mmHg 82%
18:00 +7°C° 0.6 mm 9 m/s 746 mmHg 84%
19:00 +7°C° 0.5 mm 9 m/s 747 mmHg 84%
20:00 +7°C° 0.5 mm 9 m/s 747 mmHg 84%
21:00 +7°C° 0.5 mm 8 m/s 747 mmHg 85%
22:00 +8°C° 0.6 mm 7 m/s 748 mmHg 86%
23:00 +8°C° 0.6 mm 6 m/s 748 mmHg 87%

26 Outubro, Segunda-feira

Tempo Temperatura Precipitação Vento Pressão Humidade
00:00 +7°C° 0.6 mm 5 m/s 749 mmHg 88%
01:00 +7°C° 0.3 mm 6 m/s 749 mmHg 87%
02:00 +7°C° 0.3 mm 6 m/s 750 mmHg 86%
03:00 +6°C° 0.3 mm 7 m/s 750 mmHg 85%
04:00 +6°C° 0.3 mm 7 m/s 751 mmHg 86%
05:00 +6°C° 0.3 mm 7 m/s 751 mmHg 86%
06:00 +6°C° 0.3 mm 7 m/s 752 mmHg 87%
07:00 +6°C° 0.3 mm 7 m/s 753 mmHg 85%
08:00 +8°C° 0.3 mm 7 m/s 753 mmHg 84%
09:00 +8°C° 0.3 mm 7 m/s 754 mmHg 83%
10:00 +9°C° 0.1 mm 8 m/s 754 mmHg 81%
11:00 +9°C° 0.1 mm 8 m/s 755 mmHg 78%
12:00 +10°C° 0.1 mm 8 m/s 755 mmHg 76%
13:00 +9°C° 0.1 mm 8 m/s 755 mmHg 77%
14:00 +9°C° 0.1 mm 8 m/s 756 mmHg 78%
15:00 +9°C° 0.1 mm 8 m/s 756 mmHg 79%
16:00 +9°C° 0 mm 8 m/s 756 mmHg 80%
17:00 +7°C° 0 mm 8 m/s 756 mmHg 81%
18:00 +7°C° 0 mm 8 m/s 756 mmHg 82%
19:00 +7°C° 0 mm 9 m/s 755 mmHg 83%
20:00 +7°C° 0 mm 9 m/s 755 mmHg 84%
21:00 +7°C° 0 mm 10 m/s 755 mmHg 85%
22:00 +7°C° 0 mm 10 m/s 754 mmHg 84%
23:00 +7°C° 0 mm 11 m/s 753 mmHg 84%

27 Outubro, Terça-feira

Tempo Temperatura Precipitação Vento Pressão Humidade
00:00 +7°C° 0 mm 12 m/s 752 mmHg 84%
01:00 +8°C° 0.4 mm 12 m/s 751 mmHg 85%
02:00 +8°C° 0.4 mm 13 m/s 750 mmHg 86%
03:00 +8°C° 0.4 mm 13 m/s 749 mmHg 88%
04:00 +9°C° 0.6 mm 14 m/s 747 mmHg 87%
05:00 +10°C° 0.6 mm 14 m/s 746 mmHg 86%
06:00 +10°C° 0.6 mm 15 m/s 745 mmHg 86%
07:00 +12°C° 0.7 mm 14 m/s 744 mmHg 87%
08:00 +12°C° 0.7 mm 14 m/s 744 mmHg 89%
09:00 +12°C° 0.7 mm 13 m/s 744 mmHg 91%
10:00 +12°C° 0.4 mm 13 m/s 745 mmHg 87%
11:00 +10°C° 0.4 mm 13 m/s 745 mmHg 83%
12:00 +10°C° 0.4 mm 12 m/s 746 mmHg 80%
13:00 +10°C° 0.1 mm 13 m/s 747 mmHg 77%
14:00 +9°C° 0.1 mm 13 m/s 748 mmHg 74%
15:00 +9°C° 0.1 mm 14 m/s 748 mmHg 71%
16:00 +9°C° 0.1 mm 13 m/s 749 mmHg 71%
17:00 +9°C° 0.1 mm 13 m/s 750 mmHg 71%
18:00 +9°C° 0.1 mm 13 m/s 750 mmHg 71%
19:00 +8°C° 0.1 mm 12 m/s 751 mmHg 72%
20:00 +8°C° 0.1 mm 12 m/s 752 mmHg 73%
21:00 +8°C° 0.1 mm 11 m/s 753 mmHg 75%
22:00 +8°C° 0 mm 11 m/s 753 mmHg 74%
23:00 +8°C° 0 mm 10 m/s 754 mmHg 74%
Mostrar mais